Regional Weather Roundup
Issued by NWS

Home | Current Version | Previous Version | Graphics & Text | Print | Product List | Glossary On
Versions: 1 2 3 4 5 6 7 8 9 10 11 12 13 14 15 16 17 18 19 20 21 22 23 24 25 26 27 28 29 30 31 32 33 34 35 36 37 38 39 40 41 42 43 44 45 46 47 48 49 50
000
ASUS43 KMPX 241201
RWRMN
WEATHER ROUNDUP FOR MINNESOTA
NATIONAL WEATHER SERVICE TWIN CITIES/CHANHASSEN MN
700 AM CDT MON APR 24 2017


NOTE: "FAIR" INDICATES FEW OR NO CLOUDS BELOW 12,000 FEET WITH NO
SIGNIFICANT WEATHER AND/OR OBSTRUCTIONS TO VISIBILITY. N/A MEANS
CURRENT SKY AND/OR WEATHER CONDITIONS ARE NOT AVAILABLE.

MNZ060>063-068>070-241300-
   Twin Cities Metro

CITY           SKY/WX    TMP DP  RH WIND       PRES   REMARKS
TWIN CITIES    CLOUDY    55  33  43 S9        29.81S
6HR MIN TEMP:  49; 6HR MAX TEMP:  57;

ST PAUL        MOCLDY    51  40  65 SE7       29.82S
CRYSTAL        CLOUDY    49  36  61 SE7       29.79S
BLAINE         MOCLDY    50  39  66 SE9       29.80S
LAKEVILLE      CLOUDY    52  36  54 S7        29.82R
EDEN PRAIRIE   CLOUDY    53  35  50 S6        29.79S
6HR MIN TEMP:  46; 6HR MAX TEMP:  54;

SOUTH ST PAUL  MOCLDY    53  36  52 SE7       29.82S
LAKE ELMO      FAIR      50  39  66 E7        29.84S
$$
MNZ001>005-007-008-013>017-022>024-027-028-241300-
   Northwest Minnesota

CITY           SKY/WX    TMP DP  RH WIND       PRES   REMARKS
BEMIDJI        CLOUDY    32  27  81 E14G24    29.76F WCI  22
HALLOCK        CLOUDY    36  28  75 E18       29.80F
ROSEAU         CLOUDY    34  28  80 E21       29.85S WCI  22
WARROAD        CLOUDY    34  28  80 E22       29.88S WCI  22
THIEF RVR FALL CLOUDY    33  30  88 E17       29.76F WCI  22
CROOKSTON      CLOUDY    36  30  80 E16G24    29.72F
FOSSTON        MOCLDY    32  27  80 E12G18    29.73S WCI  23
DETROIT LAKES  CLOUDY    36  30  80 SE10G16   29.68F
MOORHEAD       CLOUDY    37  30  75 E8        29.66R
PARK RAPIDS    CLOUDY    34  25  69 E12       29.72F WCI  25
MAHNOMEN       CLOUDY    34  29  81 E10G23    29.67F WCI  26
$$
MNZ006-009>011-018-025>026-241300-
   North Central Minnesota

CITY           SKY/WX    TMP DP  RH WIND       PRES   REMARKS
BAUDETTE       CLOUDY    32  29  88 E14       29.86F WCI  22
FLAG ISLAND    LGT SNOW  32  23  69 E14G21    29.90S WCI  22
INTL FALLS     MIX PCPN  31  27  85 E15G23    29.91S WCI  20
6HR MIN TEMP:  31; 6HR MAX TEMP:  33; 6HR PCP:  0.08;

WASKISH        CLOUDY    30  28  93 E14G23    29.83S WCI  20
BIG FORK       CLOUDY    30  27  86 E9G18     29.85S WCI  22
LONGVILLE      CLOUDY    34  28  80 E5        29.78F WCI  30
GRAND RAPIDS   CLOUDY    32  28  85 E9        29.85F WCI  24
CRANE LAKE     CLOUDY    28  27  93 CALM      29.97S
ORR            CLOUDY    28  25  86 MISG      29.88S
COOK           PTCLDY    28  25  86 E7        29.91R WCI  21
WALKER         CLOUDY    33  28  83 E9        29.76F WCI  25
$$
MNZ012-019>021-037-241300-
   Northeast Minnesota

CITY           SKY/WX    TMP DP  RH WIND       PRES   REMARKS
DULUTH         MOCLDY    32  26  78 E21G29    29.89S WCI  20
6HR MIN TEMP:  31; 6HR MAX TEMP:  33;

ELY            CLOUDY    28  23  80 E8        29.94S WCI  20
HIBBING        PTCLDY    30  25  81 E15G23    29.87F WCI  19
EVELETH        CLOUDY    32  24  70 E9G16     29.90S WCI  24
DULUTH HARBOR  CLOUDY    37  32  81 NE28      29.94F
TWO HARBORS    CLOUDY    36  27  69 E21G26    29.93S
SILVER BAY     CLOUDY    34  27  75 E17G28    29.96S WCI  23
GRAND MARAIS     N/A     33  27  78 NE15G25   30.05S WCI  23
G MARAIS ARPRT CLOUDY    25  19  80 E15       29.99S WCI  12
$$
MNZ029>031-032-039>041-046>048-054>057-064-241300-
   West Central Minnesota

CITY           SKY/WX    TMP DP  RH WIND       PRES   REMARKS
FERGUS FALLS   CLOUDY    39  32  75 E10G16    29.65R
WHEATON        MOCLDY    45  36  70 SE15      29.62F
MORRIS         CLOUDY    45  36  70 SE16      29.63F
ALEXANDRIA     CLOUDY    38  33  82 SE16      29.69F
ELBOW LAKE     FAIR      41  35  79 SE15      29.65S
WADENA         CLOUDY    34  28  80 E10       29.71F WCI  26
GLENWOOD       CLOUDY    39  36  87 E14       29.69F
APPLETON       CLOUDY    48  36  61 SE9       29.64F
BENSON         PTCLDY    52  32  46 S14G20    29.68F
ORTONVILLE     CLOUDY    46  37  71 SE10      29.62S
MADISON        CLOUDY    55  36  47 S10       29.63S
WILLMAR        FAIR      48  37  66 SE12      29.71F
$$
MNZ033>034-036-042>043-049>051-058-059-241300-
   Central Minnesota

CITY           SKY/WX    TMP DP  RH WIND       PRES   REMARKS
ST CLOUD       PTCLDY    37  34  89 E7        29.77F
6HR MIN TEMP:  36; 6HR MAX TEMP:  37;

SAUK CENTRE    FAIR      36  33  88 E10       29.71F
PAYNESVILLE    CLOUDY    45  36  71 SE10      29.74F
AITKIN         CLOUDY    36  28  75 E8        29.79S
PINE RIVER     CLOUDY    34  28  80 E13       29.81F WCI  25
BRAINERD       CLOUDY    36  31  82 VRB6      29.77F
STAPLES        PTCLDY    34  28  80 E7        29.73F WCI  28
LONG PRAIRIE   FAIR      36  32  87 E8        29.72F
LITTLE FALLS   CLOUDY    36  32  87 E6        29.75F
LITCHFIELD     CLOUDY    50  39  66 S6        29.75F
BUFFALO        CLOUDY    42  37  84 NE3       29.79F
MAPLE LAKE     CLOUDY    43  40  88 E3        29.78F
HUTCHINSON     CLOUDY    51  38  60 SE7       29.76F
$$
MNZ037-044-045-052-053-241300-
   East Central Minnesota

CITY           SKY/WX    TMP DP  RH WIND       PRES   REMARKS
PRINCETON      CLOUDY    37  36  93 E5        29.80F
MORA           CLOUDY    34  30  86 E5        29.84S WCI  30
CAMBRIDGE      PTCLDY    41  34  75 CALM      29.79F
RUSH CITY      CLOUDY    37  34  90 E6        29.83S
MOOSE LAKE     PTCLDY    34  28  80 E6        29.85S WCI  29
HINCKLEY       FAIR      36  32  87 E9        29.84S
CLOQUET        PTCLDY    34  27  75 E12G22    29.87F WCI  25
MCGREGOR       CLOUDY    34  30  86 E13       29.83S WCI  25
$$
MNZ071>073-080-081-089-090-097-098-241300-
   Southwest Minnesota

CITY           SKY/WX    TMP DP  RH WIND       PRES   REMARKS
MONTEVIDEO     CLOUDY    52  36  54 S12       29.66F
GRANITE FALLS  CLOUDY    53  37  56 SE12      29.69F
CANBY          MOCLDY    55  34  45 SW15G25   29.63S
MARSHALL       CLOUDY    55  35  47 S22G28    29.65F
REDWOOD FALLS  CLOUDY    51  35  54 S14       29.71F
OLIVIA         MOCLDY    50  34  53 SE12      29.71F
PIPESTONE      CLOUDY    50  32  50 S20G25    29.67F
WINDOM         CLOUDY    54  34  47 S14       29.75S
WORTHINGTON    MOCLDY    50  36  58 S18       29.73F
JACKSON        CLOUDY    50  34  53 S15       29.77F
TRACY          MOCLDY    55  37  50 S15G22    29.70F
SLAYTON        CLOUDY    52  35  52 S17       29.71F
$$
MNZ065>067-074>077-082>085-091>093-241300-
   South Central Minnesota

CITY           SKY/WX    TMP DP  RH WIND       PRES   REMARKS
MANKATO        CLOUDY    51  34  52 S8        29.80S
NEW ULM        CLOUDY    52  36  54 S15       29.76S
ST JAMES       CLOUDY    54  36  50 S16       29.78S
FAIRMONT       CLOUDY    48  35  60 S15       29.79F
GLENCOE        CLOUDY    53  38  58 S7        29.76F
FARIBAULT      CLOUDY    52  36  54 S7        29.83R
OWATONNA       CLOUDY    52  34  50 S10       29.83R
WASECA         CLOUDY    52  34  50 S13       29.83R
ALBERT LEA     CLOUDY    48  32  53 S8        29.84R
$$
MNZ078>079-086>088-094>096-241300-
   Southeast Minnesota

CITY           SKY/WX    TMP DP  RH WIND       PRES   REMARKS
ROCHESTER      CLOUDY    46  36  68 SE13      29.87R
6HR MIN TEMP:  45; 6HR MAX TEMP:  50;

RED WING       MOCLDY    54  34  47 SE8       29.84S
STANTON        CLOUDY    52  35  52 S7        29.82S
DODGE CENTER   CLOUDY    48  36  61 S14       29.85S
WINONA         PTCLDY    46  41  81 SE7       29.92S
AUSTIN         MOCLDY    48  34  57 SE3       29.86S
PRESTON        MOCLDY    47  33  57 S8        29.89S
$$
ABBREVIATIONS USED IN REMARKS
   TC - TEMPERATURES IN CELSIUS
  WCI - WIND CHILL INDEX
   HX - HEAT INDEX
  VSB - VISIBILITY
$$




USA.gov is the U.S. government's official web portal to all federal, state and local government web resources and services.